Current Weather Conditions: station 63103

sailwx.info

Wind from 350 at 12 knots

Wave height 2.4 meters (7 feet), 7 second period

Air temperature 10.0° C
Dewpoint 4.5° C

Last reported at 2017-Jun-26 23:00 UTC.
Time now 2017-Jun-27 00:12 UTC

Location: N 61°12' E 001°06'.
View on Google Maps.

See reports from other nearby stations

  
Tides and Currents Weather Stations Pressure Air Temp Water Temp Dewpoint Dewpoint Depression Visibility Wind Speed Wind Dir Waves Ship Positions
date/time (UTC)wind fromknots sea level pressurealtimeterstation pressurevisibilityair tempwater tempwave heightnotes
2017-Jun-26 23:00 350 12 10.0 2.4
2017-Jun-26 22:00 350 12 9.8 2.3
2017-Jun-26 21:00 350 13 9.9 2.3
2017-Jun-26 20:00 340 13 10.0 2.6
2017-Jun-26 19:00 340 13 10.5 2.6
2017-Jun-26 18:00 350 13 10.7 2.6
2017-Jun-26 17:00 350 13 10.5 2.7
2017-Jun-26 16:00 360 13 10.5 2.8
2017-Jun-26 15:00 350 14 10.5 2.8
2017-Jun-26 14:00 350 17 10.8 2.9
2017-Jun-26 13:00 350 13 10.5 2.9
2017-Jun-26 12:00 350 15 10.2 3.1
2017-Jun-26 11:00 350 17 10.5 3.1
2017-Jun-26 10:00 350 17 10.6 3.2
2017-Jun-26 09:00 340 18 10.3 3.3
2017-Jun-26 08:00
2017-Jun-26 07:00 350 18 11.6 3.2
2017-Jun-26 06:00 350 19 10.7 2.8
2017-Jun-26 05:00 350 20 10.1 2.8
2017-Jun-26 04:00 360 20 10.6 2.8
2017-Jun-26 03:00 010 20 10.2 2.5
2017-Jun-26 02:00 360 21 10.1 2.6
2017-Jun-26 01:00 340 17 10.4 2.4
2017-Jun-26 00:00 350 15 10.5 2.6
2017-Jun-25 23:00 340 19 10.7 2.4
2017-Jun-25 22:00 340 14 10.4 2.2
2017-Jun-25 21:00 350 19 10.8 2.4
2017-Jun-25 20:00 340 19 11.1 2.3
2017-Jun-25 19:00 350 20 11.5 2.3
2017-Jun-25 18:00 360 18 12.5 2.4
2017-Jun-25 17:00 360 17 13.4 2.1
2017-Jun-25 16:00 360 18 13.8 2.4
2017-Jun-25 15:00 010 18 13.4 2.4
2017-Jun-25 14:00 350 17 13.0 2.6
2017-Jun-25 13:00 020 17 12.8 2.6
2017-Jun-25 12:00 030 17 12.3 2.6
2017-Jun-25 11:00 010 17 13.3 2.6
2017-Jun-25 10:00 010 15 13.2 2.7
2017-Jun-25 09:00 010 15 13.1 2.6
2017-Jun-25 08:00 010 13 13.5 2.6
2017-Jun-25 07:00 020 17 11.9 2.6
2017-Jun-25 06:00 030 15 11.6 3.0
2017-Jun-25 05:00 020 9 11.3 3.2
2017-Jun-25 04:00 030 6 10.8 3.2
2017-Jun-25 03:00 210 2 10.6 3.4
2017-Jun-25 02:00 190 15 10.3 3.7
2017-Jun-25 01:00 200 19 10.2 3.8
2017-Jun-25 00:00 210 20 10.7 4.2